AAL2711 KSAN-KDFW

Flight info

Callsign AAL2711
Flight time 2h 17m
Altitude 35000
Route ZZOOO4 GBN J50 SSO J4 INK GEEKY SHMPP3
Aircraft B738/M-SDE2E3FGHIRWXY/LB1

Departure

Time 2026-05-07 05:38
Airport San Diego International Airport (KSAN)

Arrival

Time 2026-05-07 07:56
Airport Dallas Fort Worth International Airport (KDFW)
Time Latitude Longitude Altitude Speed Heading
2026-05-07 05:13 32.73372 -117.19779 24 ft 0 kts 268°
2026-05-07 05:21 32.73372 -117.19766 29 ft 3 kts 268°
2026-05-07 05:21 32.73363 -117.19724 27 ft 3 kts 320°
2026-05-07 05:21 32.73346 -117.19713 25 ft 3 kts 352°
2026-05-07 05:22 32.73336 -117.19712 27 ft 0 kts
2026-05-07 05:27 32.73364 -117.19706 24 ft 12 kts
2026-05-07 05:27 32.73408 -117.19628 26 ft 12 kts 90°
2026-05-07 05:28 32.73398 -117.19563 27 ft 12 kts 105°
2026-05-07 05:28 32.73364 -117.19425 26 ft 16 kts 107°
2026-05-07 05:28 32.73328 -117.19276 25 ft 23 kts 105°
2026-05-07 05:28 32.73282 -117.19083 28 ft 24 kts 107°
2026-05-07 05:29 32.73236 -117.18899 26 ft 23 kts 106°
2026-05-07 05:29 32.73194 -117.18721 27 ft 22 kts 106°
2026-05-07 05:29 32.73166 -117.18606 27 ft 22 kts 106°
2026-05-07 05:29 32.73104 -117.18351 23 ft 26 kts 106°
2026-05-07 05:30 32.73071 -117.18212 21 ft 27 kts 105°
2026-05-07 05:30 32.73027 -117.18030 21 ft 20 kts 107°
2026-05-07 05:30 32.72987 -117.17874 18 ft 19 kts 107°
2026-05-07 05:30 32.72958 -117.17756 17 ft 13 kts 106°
2026-05-07 05:31 32.72950 -117.17691 19 ft 2 kts 79°
2026-05-07 05:31 32.72950 -117.17690 19 ft 0 kts 79°
2026-05-07 05:36 32.72950 -117.17688 19 ft 3 kts 79°
2026-05-07 05:37 32.72967 -117.17606 21 ft 12 kts 66°
2026-05-07 05:37 32.73026 -117.17616 21 ft 14 kts 291°
2026-05-07 05:37 32.73035 -117.17649 20 ft 2 kts 284°
2026-05-07 05:37 32.73038 -117.17664 20 ft 8 kts 285°
2026-05-07 05:38 32.73114 -117.17978 18 ft 78 kts 286°
2026-05-07 05:38 32.73333 -117.18879 26 ft 147 kts 286°
2026-05-07 05:38 32.73674 -117.20181 470 ft 170 kts 288°
2026-05-07 05:38 32.74007 -117.21486 1567 ft 161 kts 287°
2026-05-07 05:39 32.74318 -117.22810 2168 ft 178 kts 287°
2026-05-07 05:39 32.74680 -117.24344 2447 ft 206 kts 287°
2026-05-07 05:39 32.75092 -117.26078 2667 ft 229 kts 287°
2026-05-07 05:39 32.75530 -117.27912 3126 ft 238 kts 287°
2026-05-07 05:40 32.75986 -117.29814 3753 ft 241 kts 287°
2026-05-07 05:40 32.76437 -117.31747 4499 ft 244 kts 282°
2026-05-07 05:40 32.76360 -117.33769 5206 ft 251 kts 252°
2026-05-07 05:40 32.75430 -117.35545 5856 ft 260 kts 223°
2026-05-07 05:41 32.73854 -117.36600 6492 ft 266 kts 193°
2026-05-07 05:41 32.72020 -117.36626 7116 ft 266 kts 162°
2026-05-07 05:41 32.70436 -117.35563 7769 ft 262 kts 131°
2026-05-07 05:41 32.69282 -117.33940 8482 ft 260 kts 124°
2026-05-07 05:42 32.68165 -117.32206 9218 ft 262 kts 123°
2026-05-07 05:42 32.67069 -117.30513 9944 ft 263 kts 123°
2026-05-07 05:42 32.65939 -117.28795 10583 ft 265 kts 123°
2026-05-07 05:42 32.64795 -117.27068 11227 ft 267 kts 123°
2026-05-07 05:43 32.63708 -117.25283 11856 ft 265 kts 110°
2026-05-07 05:43 32.63268 -117.23186 12305 ft 268 kts 88°
2026-05-07 05:43 32.63376 -117.20907 12477 ft 287 kts 82°
2026-05-07 05:43 32.63597 -117.18471 12641 ft 307 kts 81°
2026-05-07 05:44 32.63851 -117.15871 12801 ft 327 kts 81°
2026-05-07 05:44 32.64116 -117.13160 13012 ft 343 kts 81°
2026-05-07 05:44 32.64386 -117.10311 13497 ft 350 kts 81°
2026-05-07 05:44 32.64652 -117.07435 14152 ft 352 kts 81°
2026-05-07 05:45 32.64914 -117.04536 14701 ft 355 kts 81°
2026-05-07 05:45 32.65176 -117.01607 15221 ft 359 kts 81°
2026-05-07 05:45 32.65437 -116.98651 15772 ft 362 kts 81°
2026-05-07 05:45 32.65699 -116.95664 16311 ft 366 kts 81°
2026-05-07 05:46 32.65962 -116.92650 16830 ft 369 kts 81°
2026-05-07 05:46 32.66227 -116.89603 17360 ft 373 kts 81°
2026-05-07 05:46 32.66488 -116.86573 17888 ft 376 kts 81°
2026-05-07 05:46 32.66756 -116.83474 18409 ft 379 kts 81°
2026-05-07 05:47 32.67025 -116.80351 18851 ft 382 kts 81°
2026-05-07 05:47 32.67295 -116.77205 19328 ft 384 kts 81°
2026-05-07 05:47 32.67566 -116.74049 19793 ft 386 kts 81°
2026-05-07 05:47 32.67838 -116.70864 20257 ft 388 kts 81°
2026-05-07 05:48 32.68109 -116.67663 20722 ft 391 kts 81°
2026-05-07 05:48 32.68382 -116.64441 21172 ft 394 kts 81°
2026-05-07 05:48 32.68655 -116.61201 21612 ft 396 kts 81°
2026-05-07 05:48 32.68925 -116.57981 22012 ft 399 kts 81°
2026-05-07 05:49 32.69200 -116.54696 22435 ft 401 kts 81°
2026-05-07 05:49 32.69476 -116.51398 22855 ft 403 kts 81°
2026-05-07 05:49 32.69753 -116.48075 23272 ft 405 kts 81°
2026-05-07 05:49 32.70030 -116.44740 23673 ft 407 kts 81°
2026-05-07 05:50 32.70309 -116.41381 24016 ft 409 kts 81°
2026-05-07 05:50 32.70587 -116.38015 24377 ft 410 kts 81°
2026-05-07 05:50 32.70865 -116.34636 24735 ft 412 kts 81°
2026-05-07 05:50 32.71143 -116.31250 25080 ft 413 kts 81°
2026-05-07 05:51 32.71417 -116.27895 25415 ft 414 kts 81°
2026-05-07 05:51 32.71695 -116.24484 25744 ft 416 kts 81°
2026-05-07 05:51 32.71973 -116.21061 26086 ft 417 kts 81°
2026-05-07 05:51 32.72250 -116.17626 26465 ft 417 kts 81°
2026-05-07 05:52 32.72527 -116.14192 26755 ft 420 kts 81°
2026-05-07 05:52 32.72806 -116.10730 27022 ft 422 kts 81°
2026-05-07 05:52 32.73085 -116.07257 27329 ft 423 kts 81°
2026-05-07 05:52 32.73363 -116.03769 27643 ft 424 kts 81°
2026-05-07 05:53 32.73640 -116.00278 27934 ft 425 kts 81°
2026-05-07 05:53 32.73914 -115.96827 28206 ft 427 kts 81°
2026-05-07 05:53 32.74192 -115.93307 28472 ft 428 kts 81°
2026-05-07 05:53 32.74469 -115.89782 28739 ft 429 kts 81°
2026-05-07 05:54 32.74746 -115.86248 29017 ft 431 kts 81°
2026-05-07 05:54 32.75022 -115.82708 29318 ft 431 kts 81°
2026-05-07 05:54 32.75297 -115.79172 29720 ft 429 kts 81°
2026-05-07 05:54 32.75568 -115.75655 30153 ft 426 kts 81°
2026-05-07 05:55 32.75838 -115.72153 30347 ft 428 kts 81°
2026-05-07 05:55 32.76383 -115.65097 30569 ft 435 kts 81°
2026-05-07 05:55 32.76658 -115.61515 30779 ft 435 kts 81°
2026-05-07 05:56 32.76929 -115.57941 31061 ft 433 kts 81°
2026-05-07 05:56 32.77197 -115.54387 31378 ft 431 kts 80°
2026-05-07 05:56 32.77464 -115.50841 31640 ft 430 kts 80°
2026-05-07 05:56 32.77730 -115.47304 31882 ft 430 kts 80°
2026-05-07 05:57 32.77995 -115.43763 32129 ft 430 kts 80°
2026-05-07 05:57 32.78259 -115.40235 32394 ft 429 kts 80°
2026-05-07 05:57 32.78518 -115.36756 32665 ft 427 kts 80°
2026-05-07 05:57 32.78778 -115.33243 32943 ft 426 kts 80°
2026-05-07 05:58 32.79037 -115.29733 33178 ft 426 kts 80°
2026-05-07 05:58 32.79295 -115.26229 33429 ft 425 kts 80°
2026-05-07 05:58 32.79550 -115.22740 33697 ft 424 kts 80°
2026-05-07 05:58 32.79805 -115.19254 33943 ft 423 kts 80°
2026-05-07 05:59 32.80058 -115.15772 34131 ft 423 kts 80°
2026-05-07 05:59 32.80310 -115.12291 34276 ft 423 kts 80°
2026-05-07 05:59 32.80562 -115.08807 34425 ft 423 kts 80°
2026-05-07 05:59 32.80809 -115.05375 34592 ft 423 kts 81°
2026-05-07 06:00 32.81059 -115.01882 34747 ft 423 kts 81°
2026-05-07 06:00 32.81308 -114.98392 34865 ft 424 kts 81°
2026-05-07 06:00 32.81557 -114.94898 34951 ft 425 kts 81°
2026-05-07 06:01 32.82053 -114.87875 34982 ft 428 kts 81°
2026-05-07 06:01 32.82550 -114.80792 34991 ft 431 kts 81°
2026-05-07 06:02 32.83041 -114.73719 34995 ft 433 kts 81°
2026-05-07 06:02 32.83533 -114.66573 34997 ft 434 kts 81°
2026-05-07 06:03 32.84020 -114.59425 34980 ft 434 kts 81°
2026-05-07 06:03 32.84504 -114.52279 34989 ft 433 kts 82°
2026-05-07 06:04 32.84983 -114.45142 34986 ft 433 kts 82°
2026-05-07 06:04 32.85455 -114.38053 34984 ft 432 kts 82°
2026-05-07 06:05 32.85925 -114.30935 34992 ft 432 kts 82°
2026-05-07 06:05 32.86392 -114.23811 34996 ft 432 kts 82°
2026-05-07 06:06 32.86854 -114.16692 34993 ft 432 kts 82°
2026-05-07 06:06 32.87308 -114.09620 34990 ft 432 kts 82°
2026-05-07 06:07 32.87762 -114.02501 34982 ft 432 kts 82°
2026-05-07 06:07 32.88213 -113.95368 34978 ft 432 kts 82°
2026-05-07 06:08 32.88657 -113.88276 34976 ft 433 kts 82°
2026-05-07 06:08 32.89099 -113.81138 34977 ft 433 kts 82°
2026-05-07 06:09 32.89539 -113.73986 34979 ft 433 kts 83°
2026-05-07 06:09 32.89974 -113.66829 34974 ft 434 kts 83°
2026-05-07 06:10 32.90406 -113.59662 34975 ft 435 kts 83°
2026-05-07 06:10 32.90832 -113.52531 34978 ft 435 kts 83°
2026-05-07 06:11 32.91257 -113.45338 34980 ft 436 kts 83°
2026-05-07 06:11 32.91679 -113.38133 34974 ft 437 kts 83°
2026-05-07 06:12 32.92098 -113.30914 34973 ft 438 kts 83°
2026-05-07 06:12 32.92513 -113.23675 34979 ft 439 kts 83°
2026-05-07 06:13 32.92923 -113.16475 34974 ft 440 kts 83°
2026-05-07 06:13 32.93332 -113.09202 34987 ft 441 kts 84°
2026-05-07 06:14 32.93737 -113.01913 34995 ft 442 kts 84°
2026-05-07 06:14 32.94140 -112.94588 35002 ft 444 kts 84°
2026-05-07 06:15 32.94541 -112.87243 35010 ft 445 kts 84°
2026-05-07 06:15 32.94935 -112.79926 35017 ft 447 kts 84°
2026-05-07 06:16 32.95330 -112.72527 35017 ft 448 kts 84°
2026-05-07 06:16 32.95483 -112.65101 35012 ft 451 kts 93°
2026-05-07 06:17 32.94806 -112.57662 35008 ft 453 kts 95°
2026-05-07 06:17 32.94089 -112.50255 35005 ft 454 kts 95°
2026-05-07 06:18 32.93395 -112.42774 34997 ft 455 kts 95°
2026-05-07 06:18 32.92713 -112.35265 34988 ft 457 kts 95°
2026-05-07 06:19 32.92027 -112.27729 34977 ft 459 kts 95°
2026-05-07 06:19 32.91337 -112.20216 34973 ft 460 kts 95°
2026-05-07 06:20 32.90636 -112.12635 34973 ft 462 kts 96°
2026-05-07 06:20 32.89927 -112.05021 34968 ft 464 kts 96°
2026-05-07 06:21 32.89212 -111.97385 34966 ft 466 kts 96°
2026-05-07 06:21 32.88409 -111.89780 34956 ft 467 kts 102°
2026-05-07 06:22 32.86772 -111.82290 34958 ft 469 kts 105°
2026-05-07 06:22 32.84208 -111.71025 34958 ft 472 kts 105°
2026-05-07 06:23 32.82546 -111.63514 34959 ft 474 kts 105°
2026-05-07 06:23 32.80847 -111.55937 34963 ft 475 kts 106°
2026-05-07 06:24 32.79130 -111.48341 34977 ft 477 kts 107°
2026-05-07 06:24 32.77404 -111.40717 34995 ft 478 kts 107°
2026-05-07 06:25 32.75680 -111.33121 35005 ft 480 kts 107°
2026-05-07 06:25 32.73938 -111.25461 35013 ft 481 kts 107°
2026-05-07 06:26 32.72187 -111.17787 35012 ft 482 kts 108°
2026-05-07 06:26 32.70427 -111.10093 35003 ft 483 kts 108°
2026-05-07 06:27 32.68670 -111.02438 34995 ft 484 kts 108°
2026-05-07 06:27 32.66891 -110.94712 34994 ft 486 kts 108°
2026-05-07 06:28 32.65103 -110.86973 34987 ft 487 kts 109°
2026-05-07 06:28 32.63308 -110.79224 34992 ft 488 kts 109°
2026-05-07 06:29 32.61504 -110.71457 34993 ft 489 kts 109°
2026-05-07 06:29 32.59706 -110.63735 34983 ft 490 kts 109°
2026-05-07 06:30 32.57885 -110.55942 34989 ft 491 kts 110°
2026-05-07 06:30 32.56062 -110.48146 34991 ft 492 kts 110°
2026-05-07 06:31 32.54230 -110.40320 34983 ft 493 kts 110°
2026-05-07 06:31 32.52402 -110.32535 34987 ft 495 kts 110°
2026-05-07 06:32 32.50552 -110.24681 34981 ft 495 kts 110°
2026-05-07 06:32 32.48694 -110.16820 34992 ft 496 kts 111°
2026-05-07 06:33 32.46829 -110.08947 34987 ft 497 kts 111°
2026-05-07 06:33 32.44966 -110.01115 35000 ft 498 kts 111°
2026-05-07 06:34 32.43080 -109.93205 34996 ft 500 kts 111°
2026-05-07 06:34 32.41186 -109.85287 34994 ft 501 kts 112°
2026-05-07 06:35 32.39280 -109.77344 34989 ft 503 kts 112°
2026-05-07 06:35 32.37376 -109.69430 34979 ft 504 kts 112°
2026-05-07 06:36 32.35451 -109.61454 34974 ft 505 kts 112°
2026-05-07 06:36 32.33517 -109.53465 34971 ft 506 kts 113°
2026-05-07 06:37 32.31573 -109.45458 34970 ft 507 kts 113°
2026-05-07 06:37 32.29634 -109.37491 34984 ft 508 kts 113°
2026-05-07 06:38 32.27672 -109.29457 34979 ft 510 kts 114°
2026-05-07 06:38 32.26256 -109.21171 34992 ft 521 kts 103°
2026-05-07 06:39 32.25493 -109.12632 34981 ft 524 kts 102°
2026-05-07 06:39 32.24762 -109.04062 35014 ft 525 kts 103°
2026-05-07 06:40 32.23979 -108.95538 35048 ft 526 kts 103°
2026-05-07 06:40 32.23150 -108.86954 35083 ft 526 kts 104°
2026-05-07 06:41 32.22306 -108.78360 35114 ft 527 kts 104°
2026-05-07 06:41 32.21458 -108.69754 35109 ft 528 kts 104°
2026-05-07 06:42 32.20613 -108.61202 35110 ft 528 kts 104°
2026-05-07 06:42 32.19757 -108.52591 35084 ft 529 kts 104°
2026-05-07 06:43 32.18893 -108.43964 35045 ft 529 kts 104°
2026-05-07 06:43 32.18022 -108.35330 35004 ft 530 kts 104°
2026-05-07 06:44 32.17150 -108.26749 34988 ft 530 kts 104°
2026-05-07 06:44 32.16267 -108.18108 34985 ft 531 kts 104°
2026-05-07 06:45 32.15377 -108.09463 35002 ft 531 kts 104°
2026-05-07 06:45 32.14480 -108.00815 35038 ft 531 kts 104°
2026-05-07 06:46 32.13576 -107.92157 35069 ft 532 kts 104°
2026-05-07 06:46 32.12672 -107.83555 35094 ft 532 kts 104°
2026-05-07 06:47 32.11756 -107.74889 35104 ft 533 kts 104°
2026-05-07 06:47 32.10832 -107.66212 35099 ft 534 kts 104°
2026-05-07 06:48 32.09906 -107.57576 35070 ft 534 kts 104°
2026-05-07 06:48 32.08968 -107.48881 35030 ft 535 kts 104°
2026-05-07 06:49 32.08024 -107.40182 34995 ft 535 kts 104°
2026-05-07 06:49 32.07072 -107.31472 34967 ft 536 kts 104°
2026-05-07 06:50 32.06113 -107.22753 34975 ft 537 kts 105°
2026-05-07 06:50 32.05153 -107.14083 34992 ft 537 kts 105°
2026-05-07 06:51 32.04180 -107.05351 35014 ft 537 kts 105°
2026-05-07 06:51 32.03201 -106.96616 35021 ft 538 kts 105°
2026-05-07 06:52 32.02214 -106.87871 35055 ft 538 kts 105°
2026-05-07 06:52 32.01228 -106.79181 35085 ft 539 kts 105°
2026-05-07 06:53 32.00228 -106.70426 35105 ft 539 kts 105°
2026-05-07 06:53 31.99222 -106.61676 35104 ft 539 kts 105°
2026-05-07 06:54 31.98208 -106.52912 35069 ft 540 kts 105°
2026-05-07 06:54 31.97196 -106.44208 35087 ft 540 kts 105°
2026-05-07 06:55 31.96171 -106.35450 35083 ft 540 kts 105°
2026-05-07 06:55 31.95166 -106.26674 35075 ft 543 kts 103°
2026-05-07 06:56 31.94863 -106.17720 35047 ft 550 kts 97°
2026-05-07 06:56 31.94831 -106.08764 35004 ft 551 kts 97°
2026-05-07 06:57 31.94752 -105.99752 34972 ft 551 kts 97°
2026-05-07 06:57 31.94599 -105.90733 34969 ft 551 kts 98°
2026-05-07 06:58 31.94421 -105.81716 34967 ft 551 kts 98°
2026-05-07 06:58 31.94243 -105.72743 34973 ft 552 kts 98°
2026-05-07 06:59 31.94063 -105.63710 34982 ft 552 kts 98°
2026-05-07 06:59 31.93876 -105.54656 34978 ft 553 kts 98°
2026-05-07 07:00 31.93682 -105.45601 34989 ft 554 kts 98°
2026-05-07 07:00 31.93484 -105.36597 34981 ft 554 kts 98°
2026-05-07 07:01 31.93283 -105.27521 34985 ft 555 kts 98°
2026-05-07 07:01 31.93094 -105.18434 34982 ft 556 kts 98°
2026-05-07 07:02 31.92901 -105.09345 34983 ft 556 kts 98°
2026-05-07 07:02 31.92700 -105.00237 34980 ft 557 kts 98°
2026-05-07 07:03 31.92491 -104.91183 34996 ft 557 kts 98°
2026-05-07 07:03 31.92276 -104.82042 34975 ft 559 kts 98°
2026-05-07 07:04 31.92051 -104.72896 34976 ft 559 kts 98°
2026-05-07 07:04 31.91821 -104.63755 34978 ft 559 kts 98°
2026-05-07 07:05 31.91585 -104.54666 34979 ft 559 kts 98°
2026-05-07 07:05 31.91341 -104.45509 34985 ft 560 kts 98°
2026-05-07 07:06 31.91091 -104.36356 34977 ft 560 kts 98°
2026-05-07 07:06 31.90833 -104.27182 34961 ft 561 kts 99°
2026-05-07 07:07 31.90571 -104.18065 34955 ft 561 kts 99°
2026-05-07 07:07 31.90301 -104.08881 34946 ft 562 kts 99°
2026-05-07 07:08 31.90023 -103.99688 34934 ft 562 kts 99°
2026-05-07 07:08 31.89738 -103.90494 34932 ft 563 kts 99°
2026-05-07 07:09 31.89449 -103.81348 34937 ft 563 kts 99°
2026-05-07 07:09 31.89151 -103.72137 34933 ft 564 kts 99°
2026-05-07 07:10 31.88846 -103.62918 34937 ft 564 kts 99°
2026-05-07 07:10 31.88534 -103.53691 34946 ft 564 kts 99°
2026-05-07 07:11 31.88218 -103.44528 34944 ft 564 kts 99°
2026-05-07 07:11 31.87893 -103.35306 34951 ft 564 kts 99°
2026-05-07 07:12 31.87579 -103.26090 34955 ft 566 kts 97°
2026-05-07 07:12 31.88311 -103.16785 34976 ft 575 kts 86°
2026-05-07 07:13 31.89636 -103.07548 34971 ft 577 kts 85°
2026-05-07 07:13 31.90291 -102.99048 35020 ft 567 kts 98°
2026-05-07 07:14 31.90583 -102.94342 34683 ft 579 kts 86°
2026-05-07 07:14 31.91321 -102.89700 34855 ft 575 kts 82°
2026-05-07 07:14 31.93064 -102.80497 34960 ft 576 kts 82°
2026-05-07 07:15 31.94555 -102.71293 35033 ft 576 kts 85°
2026-05-07 07:15 31.95790 -102.61971 35081 ft 577 kts 86°
2026-05-07 07:16 31.96048 -102.58713 35199 ft 573 kts 91°
2026-05-07 07:16 31.96480 -102.54020 35092 ft 579 kts 87°
2026-05-07 07:16 31.97744 -102.44645 35116 ft 580 kts 84°
2026-05-07 07:17 31.98619 -102.36711 35097 ft 578 kts 85°
2026-05-07 07:17 31.99966 -102.27472 35109 ft 573 kts 84°
2026-05-07 07:18 32.01276 -102.18244 35119 ft 570 kts 85°
2026-05-07 07:18 32.02462 -102.09017 35141 ft 569 kts 86°
2026-05-07 07:19 32.03593 -101.99793 35142 ft 569 kts 86°
2026-05-07 07:19 32.04712 -101.90612 35107 ft 571 kts 86°
2026-05-07 07:20 32.05848 -101.81329 35084 ft 572 kts 86°
2026-05-07 07:20 32.06984 -101.72031 35093 ft 574 kts 86°
2026-05-07 07:21 32.08116 -101.62712 35115 ft 574 kts 86°
2026-05-07 07:21 32.09233 -101.53449 35131 ft 575 kts 86°
2026-05-07 07:22 32.10353 -101.44098 35127 ft 576 kts 86°
2026-05-07 07:22 32.11466 -101.34741 35108 ft 576 kts 86°
2026-05-07 07:23 32.12573 -101.25381 35088 ft 576 kts 86°
2026-05-07 07:23 32.13666 -101.16079 35070 ft 576 kts 86°
2026-05-07 07:24 32.14758 -101.06722 35061 ft 576 kts 86°
2026-05-07 07:24 32.15844 -100.97349 35070 ft 576 kts 86°
2026-05-07 07:25 32.17452 -100.83367 35068 ft 576 kts 87°
2026-05-07 07:25 32.18872 -100.55658 35210 ft 571 kts 92°
2026-05-07 07:26 32.19559 -100.51026 35040 ft 575 kts 71°
2026-05-07 07:26 32.20895 -100.46652 35018 ft 558 kts 77°
2026-05-07 07:26 32.22253 -100.42434 35075 ft 544 kts 59°
2026-05-07 07:26 32.24306 -100.38758 34996 ft 531 kts 54°
2026-05-07 07:27 32.26250 -100.35084 34825 ft 522 kts 64°
2026-05-07 07:27 32.27617 -100.31169 34981 ft 514 kts 76°
2026-05-07 07:27 32.28437 -100.27119 35059 ft 513 kts 85°
2026-05-07 07:28 32.28822 -100.18769 35121 ft 509 kts 99°
2026-05-07 07:28 32.28523 -100.10333 35117 ft 519 kts 99°
2026-05-07 07:29 32.28269 -100.01733 35126 ft 529 kts 98°
2026-05-07 07:29 32.28065 -99.92967 35129 ft 538 kts 98°
2026-05-07 07:30 32.28000 -99.84102 35128 ft 550 kts 93°
2026-05-07 07:30 32.28504 -99.75042 35147 ft 553 kts 90°
2026-05-07 07:31 32.29116 -99.66055 34923 ft 541 kts 91°
2026-05-07 07:31 32.29384 -99.61644 34514 ft 537 kts 92°
2026-05-07 07:31 32.29627 -99.57244 34018 ft 536 kts 92°
2026-05-07 07:31 32.29853 -99.52853 33468 ft 535 kts 92°
2026-05-07 07:32 32.30068 -99.48541 33000 ft 532 kts 92°
2026-05-07 07:32 32.30283 -99.44198 32596 ft 528 kts 92°
2026-05-07 07:32 32.30498 -99.39881 32210 ft 524 kts 92°
2026-05-07 07:32 32.30712 -99.35600 31799 ft 520 kts 92°
2026-05-07 07:33 32.30924 -99.31347 31398 ft 517 kts 92°
2026-05-07 07:33 32.31133 -99.27123 31000 ft 514 kts 93°
2026-05-07 07:33 32.31341 -99.22907 30607 ft 511 kts 93°
2026-05-07 07:33 32.31546 -99.18728 30235 ft 508 kts 93°
2026-05-07 07:34 32.31747 -99.14576 29800 ft 505 kts 93°
2026-05-07 07:34 32.31943 -99.10501 29400 ft 501 kts 92°
2026-05-07 07:34 32.32139 -99.06417 28989 ft 497 kts 92°
2026-05-07 07:34 32.32333 -99.02350 28581 ft 493 kts 92°
2026-05-07 07:35 32.32524 -98.98314 28172 ft 490 kts 92°
2026-05-07 07:35 32.32713 -98.94304 27769 ft 487 kts 92°
2026-05-07 07:35 32.32901 -98.90323 27377 ft 483 kts 91°
2026-05-07 07:35 32.33087 -98.86372 26982 ft 480 kts 91°
2026-05-07 07:36 32.33270 -98.82444 26593 ft 477 kts 91°
2026-05-07 07:36 32.33449 -98.78589 26215 ft 474 kts 91°
2026-05-07 07:36 32.33628 -98.74706 25840 ft 471 kts 91°
2026-05-07 07:36 32.33804 -98.70851 25469 ft 469 kts 91°
2026-05-07 07:37 32.33978 -98.67010 25097 ft 466 kts 90°
2026-05-07 07:37 32.34150 -98.63204 24729 ft 463 kts 90°
2026-05-07 07:37 32.34320 -98.59407 24380 ft 460 kts 90°
2026-05-07 07:37 32.34488 -98.55643 24034 ft 458 kts 90°
2026-05-07 07:38 32.34654 -98.51894 23683 ft 455 kts 89°
2026-05-07 07:38 32.34817 -98.48170 23279 ft 452 kts 89°
2026-05-07 07:38 32.34977 -98.44518 22911 ft 449 kts 89°
2026-05-07 07:38 32.35136 -98.40855 22542 ft 445 kts 89°
2026-05-07 07:39 32.35293 -98.37207 22163 ft 442 kts 89°
2026-05-07 07:39 32.35448 -98.33591 21821 ft 438 kts 89°
2026-05-07 07:39 32.35601 -98.30006 21483 ft 435 kts 89°
2026-05-07 07:39 32.35749 -98.26447 21126 ft 432 kts 89°
2026-05-07 07:40 32.35894 -98.22910 20778 ft 429 kts 89°
2026-05-07 07:40 32.36037 -98.19407 20438 ft 426 kts 89°
2026-05-07 07:40 32.36176 -98.15963 20115 ft 423 kts 89°
2026-05-07 07:40 32.36315 -98.12504 19770 ft 420 kts 89°
2026-05-07 07:41 32.36452 -98.09068 19459 ft 417 kts 88°
2026-05-07 07:41 32.36588 -98.05656 19121 ft 414 kts 88°
2026-05-07 07:41 32.36722 -98.02263 18774 ft 411 kts 88°
2026-05-07 07:41 32.36854 -97.98905 18471 ft 408 kts 88°
2026-05-07 07:42 32.36985 -97.95557 18120 ft 406 kts 88°
2026-05-07 07:42 32.37113 -97.92234 17764 ft 403 kts 88°
2026-05-07 07:42 32.37241 -97.88940 17405 ft 400 kts 88°
2026-05-07 07:42 32.37368 -97.85708 17055 ft 398 kts 88°
2026-05-07 07:43 32.37496 -97.82449 16704 ft 395 kts 88°
2026-05-07 07:43 32.37622 -97.79215 16374 ft 393 kts 88°
2026-05-07 07:43 32.37747 -97.75998 16024 ft 390 kts 88°
2026-05-07 07:43 32.37870 -97.72802 15687 ft 388 kts 88°
2026-05-07 07:44 32.37992 -97.69618 15347 ft 386 kts 88°
2026-05-07 07:44 32.38112 -97.66453 15020 ft 384 kts 88°
2026-05-07 07:44 32.38569 -97.63369 14651 ft 380 kts 66°
2026-05-07 07:44 32.39806 -97.60709 14332 ft 369 kts 45°
2026-05-07 07:45 32.41552 -97.58572 14222 ft 355 kts 37°
2026-05-07 07:45 32.43323 -97.56607 14146 ft 344 kts 36°
2026-05-07 07:45 32.45049 -97.54706 14037 ft 333 kts 36°
2026-05-07 07:45 32.46730 -97.52824 13647 ft 334 kts 37°
2026-05-07 07:46 32.48404 -97.50926 13322 ft 333 kts 37°
2026-05-07 07:46 32.50016 -97.48952 13032 ft 336 kts 50°
2026-05-07 07:46 32.51036 -97.46442 12754 ft 342 kts 75°
2026-05-07 07:46 32.51375 -97.43670 12509 ft 340 kts 83°
2026-05-07 07:47 32.51610 -97.40887 12225 ft 338 kts 84°
2026-05-07 07:47 32.51846 -97.38162 11934 ft 337 kts 82°
2026-05-07 07:47 32.52131 -97.35416 11666 ft 334 kts 82°
2026-05-07 07:47 32.52435 -97.32695 11405 ft 332 kts 81°
2026-05-07 07:48 32.52747 -97.30000 11143 ft 329 kts 81°
2026-05-07 07:48 32.53065 -97.27320 10862 ft 328 kts 79°
2026-05-07 07:48 32.53767 -97.24800 10563 ft 320 kts 57°
2026-05-07 07:48 32.54898 -97.22549 10344 ft 315 kts 53°
2026-05-07 07:49 32.56071 -97.20372 10091 ft 313 kts 52°
2026-05-07 07:49 32.57235 -97.18245 9803 ft 310 kts 51°
2026-05-07 07:49 32.58461 -97.16158 9550 ft 306 kts 49°
2026-05-07 07:49 32.59692 -97.14118 9310 ft 303 kts 49°
2026-05-07 07:50 32.60907 -97.12113 8957 ft 297 kts 49°
2026-05-07 07:50 32.62115 -97.10131 8542 ft 295 kts 49°
2026-05-07 07:50 32.63312 -97.08188 8198 ft 289 kts 49°
2026-05-07 07:50 32.64652 -97.06556 8066 ft 262 kts 23°
2026-05-07 07:51 32.66267 -97.05962 7969 ft 231 kts
2026-05-07 07:51 32.67783 -97.05715 7811 ft 216 kts 360°
2026-05-07 07:51 32.69261 -97.05589 7474 ft 212 kts 356°
2026-05-07 07:51 32.70717 -97.05560 7066 ft 207 kts 355°
2026-05-07 07:52 32.72159 -97.05556 6556 ft 207 kts 356°
2026-05-07 07:52 32.73591 -97.05550 6124 ft 204 kts 357°
2026-05-07 07:52 32.75003 -97.05544 5699 ft 199 kts 358°
2026-05-07 07:52 32.76321 -97.05534 5470 ft 184 kts 359°
2026-05-07 07:53 32.77593 -97.05531 5034 ft 181 kts
2026-05-07 07:53 32.78841 -97.05525 4523 ft 179 kts
2026-05-07 07:53 32.80080 -97.05522 4039 ft 176 kts
2026-05-07 07:53 32.81290 -97.05519 3568 ft 180 kts
2026-05-07 07:54 32.82520 -97.05528 3200 ft 171 kts
2026-05-07 07:54 32.83744 -97.05477 2542 ft 179 kts
2026-05-07 07:54 32.84980 -97.05517 1937 ft 179 kts
2026-05-07 07:54 32.86234 -97.05483 1281 ft 181 kts
2026-05-07 07:55 32.87470 -97.05488 812 ft 175 kts
2026-05-07 07:55 32.88640 -97.05482 620 ft 157 kts
2026-05-07 07:55 32.89603 -97.05476 620 ft 116 kts
2026-05-07 07:55 32.90252 -97.05476 617 ft 73 kts
2026-05-07 07:56 32.90604 -97.05469 621 ft 29 kts
2026-05-07 07:56 32.90781 -97.05467 622 ft 30 kts
2026-05-07 07:56 32.90918 -97.05422 620 ft 19 kts 72°
2026-05-07 07:56 32.90916 -97.05265 615 ft 19 kts 90°
2026-05-07 07:57 32.90915 -97.05113 615 ft 18 kts 90°
2026-05-07 07:57 32.90914 -97.04966 615 ft 17 kts 90°
2026-05-07 07:57 32.90913 -97.04831 615 ft 11 kts 90°
2026-05-07 07:57 32.90878 -97.04765 615 ft 10 kts 163°
2026-05-07 07:58 32.90803 -97.04757 619 ft 13 kts 178°
2026-05-07 07:58 32.90679 -97.04754 622 ft 21 kts 182°
2026-05-07 07:58 32.90584 -97.04698 615 ft 12 kts 110°
2026-05-07 07:58 32.90567 -97.04616 619 ft 7 kts 108°
2026-05-07 07:59 32.90555 -97.04574 621 ft 3 kts 109°
2026-05-07 07:59 32.90551 -97.04562 629 ft 0 kts 110°